OK2ARM-12 Weather Reports


time (UTC)temp
C
wind
direction
speed
KPH
gust
KPH
rain 1hr
cm
rain 24hr
cm
rain mn
cm
humidity
%
barometer
mb
20260505060006 12 0.0 0.0 0.00 0.00 0.00 46 1010.0
20260505055006 12 0.0 0.0 0.00 0.00 0.00 46 1010.0
20260505054005 12 0.0 0.0 0.00 0.00 0.00 48 1010.0
20260505053006 12 0.0 0.0 0.00 0.00 0.00 47 1009.9
20260505050742 11 0.0 0.0 0.00 0.00 0.00 48 1009.9
20260505041742 11 0.0 0.0 0.00 0.00 0.00 48 1009.8
20260505040742 12 0.0 0.0 0.00 0.00 0.00 48 1009.7
20260505035742 12 0.0 0.0 0.00 0.00 0.00 48 1009.7
20260505033516 12 0.0 0.0 0.00 0.00 0.00 48 1009.8
20260505031252 11 0.0 0.0 0.00 0.00 0.00 49 1010.1
20260505030252 12 0.0 0.0 0.00 0.00 0.00 48 1010.2
20260505025253 12 0.0 0.0 0.00 0.00 0.00 48 1010.3
20260505023026 12 0.0 0.0 0.00 0.00 0.00 47 1010.6
20260505022026 12 0.0 0.0 0.00 0.00 0.00 46 1010.6
20260505021027 13 0.0 0.0 0.00 0.00 0.00 45 1010.8
20260505020026 13 0.0 0.0 0.00 0.00 0.00 45 1010.9
20260505015027 13 0.0 0.0 0.00 0.00 0.00 45 1010.9
20260505010316 13 0.0 0.0 0.00 0.00 0.00 43 1010.8
20260505005316 13 0.0 0.0 0.00 0.00 0.00 43 1010.9
20260505004316 13 0.0 0.0 0.00 0.00 0.00 43 1011.0
20260505003316 13 0.0 0.0 0.00 0.00 0.00 42 1011.1
20260505002316 14 0.0 0.0 0.00 0.00 0.00 42 1011.1
20260505001316 14 0.0 0.0 0.00 0.00 0.00 42 1011.3
20260505000316 14 0.0 0.0 0.00 0.00 0.00 41 1011.3
20260504234052 15 0.0 0.0 0.00 0.00 0.00 41 1011.6
20260504233052 15 0.0 0.0 0.00 0.00 0.00 40 1011.7
20260504232052 15 0.0 0.0 0.00 0.00 0.00 40 1011.8
20260504231052 15 0.0 0.0 0.00 0.00 0.00 40 1011.8
20260504230052 15 0.0 0.0 0.00 0.00 0.00 40 1011.8
20260504225053 15 0.0 0.0 0.00 0.00 0.00 39 1012.0
20260504224052 15 0.0 0.0 0.00 0.00 0.00 39 1012.1
20260504223052 15 0.0 0.0 0.00 0.00 0.00 39 1012.2
20260504222053 15 0.0 0.0 0.00 0.00 0.00 39 1012.2
20260504214605 16 0.0 0.0 0.00 0.00 0.00 38 1012.4
20260504213605 16 0.0 0.0 0.00 0.00 0.00 38 1012.5
20260504212605 16 0.0 0.0 0.00 0.00 0.00 38 1012.6
20260504211605 16 0.0 0.0 0.00 0.00 0.00 38 1012.6
20260504204118 17 0.0 0.0 0.00 0.00 0.00 38 1012.8
20260504203118 17 0.0 0.0 0.00 0.00 0.00 39 1012.8
20260504202118 17 0.0 0.0 0.00 0.00 0.00 38 1012.8
20260504201118 17 0.0 0.0 0.00 0.00 0.00 38 1012.9
20260504200118 17 0.0 0.0 0.00 0.00 0.00 38 1013.0
20260504193854 17 0.0 0.0 0.00 0.00 0.00 38 1013.0
20260504190408 17 0.0 0.0 0.00 0.00 0.00 39 1013.0
20260504185407 17 0.0 0.0 0.00 0.00 0.00 39 1013.0
20260504184407 18 0.0 0.0 0.00 0.00 0.00 38 1012.8
20260504182144 18 0.0 0.0 0.00 0.00 0.00 38 1012.8
20260504175919 19 0.0 0.0 0.00 0.00 0.00 34 1012.6
20260504174919 19 0.0 0.0 0.00 0.00 0.00 34 1012.6
20260504173920 19 0.0 0.0 0.00 0.00 0.00 35 1012.7
20260504172921 19 0.0 0.0 0.00 0.00 0.00 36 1012.6
20260504171920 20 0.0 0.0 0.00 0.00 0.00 37 1012.7
20260504170920 20 0.0 0.0 0.00 0.00 0.00 36 1012.7
20260504150207 21 0.0 0.0 0.00 0.00 0.00 39 1012.9
20260504141207 21 0.0 0.0 0.00 0.00 0.00 39 1013.4
20260504140206 21 0.0 0.0 0.00 0.00 0.00 38 1013.7
20260504110232 17 0.0 0.0 0.00 0.00 0.00 48 1015.2
20260504100231 16 0.0 0.0 0.00 0.00 0.00 49 1015.8
20260504080744 14 0.0 0.0 0.00 0.00 0.00 55 1015.6